DELTA 1 DEB, 7186

Orbit data source: Space-Track

DELTA 1 DEB, 7186 is space debris in SSO originally from a launch on Tue, 06 Nov 1973 UTC launched from the Air Force Western Test Range (AFWTR). Debris objects in space refer to the collection of defunct objects orbiting the Earth. Examples of debris include non-operational satellites, rocket bodies, and fragments generated from explosions, collisions, or faulty payload assembly.

Loading next visibility...
Identifier
7186, 1973-086EX
Orbit
SSO
Country
Flag of USUS
Related business
Manufacturer
Unknown
Mission
Spacecraft
Bus & Motor
Unknown
Mass
Unknown
Launch date (UTC)
1973-11-06 (52 years ago)
Launch vehicle
Unknown
Launch site
Air Force Western Test Range (AFWTR)
Object type
Payload
Rocket body
Debris
Shape & HBR
Unknown shape, 0.1 m
Radar Cross Section
Small (<0.1 m²)

Expand to show TLE details & history
Last TLE update: 7 hours ago

TLE from 7 hours ago
0 DELTA 1 DEB
1 07186U 73086EX  25292.95371047  .00001874  00000-0  55895-2 0  9996
2 07186 101.7781  73.6035 0223211 354.7708 124.8788 13.01247526447147
Epoch: 2025-10-19T22:53Z
TLE epoch observation values (Epoch: 2025-10-19T22:53:20.584Z)
Latitude
56.47929°
Longitude
-100.14176°
Altitude
1,366.444 km
Speed
7.134 km/s
True Right ascension
18h 07m 25s
True Declination
56° 19' 60"
Sunlit
Object was in daylight at epoch
Visualization orbit readout
Latitude
Unknown
Longitude
Unknown
Altitude
Unknown
Speed
Unknown
Apparent Right ascension
Unknown
Apparent Declination
Unknown
Sunlit
N/A
Visualization observer readout
Local Sidereal Time
00:58:57
Azimuth
Unknown
Elevation
Unknown
Doppler factor
Unknown
Orbital elements
Apogee altitude
1,425.059 km
Perigee altitude
1,084.313 km
Semi-major axis
7,632.823 km
Eccentricity
0.02232
Inclination
101.7781°
RAAN
73.6035°
Arg. of periapsis
354.7708°
True anomaly
126.94371°
Mean anomaly
124.8788°
Eccentric anomaly
125.91458°
Mean motion
3.25473 °/min
Orbital period
110.61 mins
BSTAR
0.0055895
Loading maneuver chart data...
Computing Atmospheric mass density...

Documentation

Showing up to 5 results
|